Regional Weather Roundup
Issued by NWS Charleston, SC

Current Version | Previous Version | Graphics & Text | Print | Product List | Glossary On
Versions: 1 2 3 4 5 6 7 8 9 10 11 12 13 14 15 16 17 18 19 20 21 22 23 24 25 26 27 28 29 30 31 32 33 34 35 36 37 38 39 40 41 42 43 44 45 46 47 48 49 50
000
ASUS42 KCHS 211712
RWRCHS

REGIONAL WEATHER ROUNDUP
NATIONAL WEATHER SERVICE CHARLESTON SC
100 PM EDT SAT OCT 21 2017

NOTE: "FAIR" INDICATES FEW OR NO CLOUDS BELOW 12,000 FEET WITH NO
SIGNIFICANT WEATHER AND/OR OBSTRUCTIONS TO VISIBILITY.

NOT ALL STATIONS ARE QUALITY CONTROLLED. USE DATA WITH CAUTION...
ESPECIALLY DEWPOINT OBSERVATIONS.

SCZ027-030-031-034>040-042>050-211800-
...SOUTHEAST SOUTH CAROLINA...

CITY           SKY/WX    TMP DP  RH WIND       PRES   REMARKS
N CHARLESTON   MOSUNNY   80  62  54 NE6       30.29F
WATERFRONT PRK   N/A     78  63  59 E8        30.14S
JOHNS ISLAND   FAIR      79  63  57 E9        30.29F
PINOPOLIS        N/A     73  63  68 VRB3      30.24S
MONCKS CORNER  FAIR      77  57  50 E5        30.30F
SUMMERVILLE    FAIR      77  59  53 NE6       30.31S
BEAUFORT MCAS  CLOUDY    79  60  52 MISG      30.28F
BEAUFORT ARPT  FAIR      77  61  57 NE7       30.28F HAZE
HILTON HEAD IS SUNNY     77  63  61 N8          N/A
WALTERBORO     SUNNY     75  59  57 CALM      30.30F
ALLENDALE        N/A     77  46  33 CALM        N/A

...SOUTHERN MIDLANDS AND PEE DEE...

CITY           SKY/WX    TMP DP  RH WIND       PRES   REMARKS
GEORGETOWN     FAIR      77  59  53 E6        30.32S
KINGSTREE      FAIR      77  52  41 CALM      30.31F
ORANGEBURG     SUNNY     78  50  37 VRB3      30.30F
BARNWELL         N/A     79  52  38 E8        30.30F
AIKEN          FAIR      75  54  46 E8        30.34F
MANNING        FAIR      79  48  34 MISG      30.31F
COLUMBIA       PTSUNNY   78  55  44 E7        30.31F
SUMTER         SUNNY     78  53  40 E5        30.29F
FLORENCE       SUNNY     76  53  44 CALM      30.31F
MYRTLE BEACH   SUNNY     75  59  57 E9        30.32F
N MYRTLE BEACH SUNNY     76  58  53 E8        30.31F

$$

GAZ063-065-086>088-099>101-113>116-118-119-134>141-150-211800-
...SOUTHEAST GEORGIA...

CITY           SKY/WX    TMP DP  RH WIND       PRES   REMARKS
SAVANNAH ARPT  PTSUNNY   81  60  48 NE12      30.27F
HUNTER AAF     SUNNY     81  63  53 NE9G18    30.24F
FORT STEWART   SUNNY     82  62  51 E6        30.24F
STATESBORO     SUNNY     80  53  39 N6        30.28F
SYLVANIA       MOSUNNY   79  61  54 CALM      30.30F HAZE
CLAXTON        FAIR      83  58  43 NE7       30.27F

...CSRA...CENTRAL AND FAR SOUTHEAST GEORGIA...

CITY           SKY/WX    TMP DP  RH WIND       PRES   REMARKS
THOMSON        SUNNY     75  55  48 SE7       30.35F
AUGUSTA-BUSH   SUNNY     79  56  45 CALM      30.29F
AUGUSTA-DANIEL SUNNY     77  55  46 E8        30.31F
SWAINSBORO     FAIR      79  57  47 E7        30.29F
VIDALIA        SUNNY     81  61  50 E9        30.27F
EASTMAN        FAIR      82  45  27 E8        30.29F
HAZLEHURST     FAIR      81  50  33 NE8       30.25S
ALMA           MOSUNNY   82  63  52 E7        30.24F
WAYCROSS       CLOUDY    83  61  47 E12G17    30.24S
JESUP          NOT AVBL
BAXLEY         FAIR      81  61  50 E6        30.25S
BRUNSWICK      MOSUNNY   81  64  57 E16       30.26S
SAINT SIMONS   MOSUNNY   80  69  69 NE14      30.25S

$$

SCZ027-028-034-036>038-045-046-048>050-GAZ119-141-211800-
...LAKE AND SUPPLEMENTAL COASTAL OBSERVATIONS...

STATION/POSITION TIME  TEMP    WIND        PRES    WAVE   SWELL
                       AIR SEA DIR/SP/G            HT/PER HT/PER/DIR
                 (UTC) (F)     (DEG/KT/KT) (MB)    (FT/S) (FT/S/D)
WINYAH BAY       1545   71      60/ 10     1027.0
LAKE MURRAY      1620   72     200/  4/  4 1025.7
ACE BASIN NERRS  1545   78      40/  3     1026.0
FORT PULASKI     1642   74 73   60/ 10/ 13 1025.6F
SAPELO ISLAND    NOT AVBL

$$

ANZ835-935-AMZ111-154-330-350-352-354-370-450-454-472-211800-
...C-MAN AND BUOY OBSERVATIONS...

STATION/POSITION TIME  TEMP    WIND        PRES    WAVE   SWELL
                       AIR SEA DIR/SP/G            HT/PER HT/PER/DIR
                 (UTC) (F)     (DEG/KT/KT) (MB)    (FT/S) (FT/S/D)
BUOY 41004       1650   76 80   30/ 16/ 19 1024.9F   4/ 4   2/120/ 9
BUOY 41008       1550   76 77   60/ 17/ 21 1023.9    4/ 4   2/120/ 8
FOLLY BEACH CMAN 1600   72      40/ 13/ 15 1026.6R
CAPERS NEARSHORE 1608   71 73   60/ 14/ 17 1025.7R
FRIPP NEARSHORE  1608   74      50/ 12/ 16   N/A


STATION/POSITION TIME  TEMP    WIND        PRES    WAVE   SWELL
                       AIR SEA DIR/SP/G            HT/PER HT/PER/DIR
                 (UTC) (F)     (DEG/KT/KT) (MB)    (FT/S) (FT/S/D)
5E ST. MARYS GA  1630      77                N/A     4/10
FRYING PAN BUOY  1650   75 76   40/ 12/ 14 1025.9S   3/ 9   3/120/ 9
BUOY 41025       1650   73 81   20/ 10/ 14 1026.5F   3/ 8   3/120/ 8
CAPE LOOKOUT NC  1600   72      40/  8/  9 1026.8R
BUOY 41002       1650   77 80   70/ 10/ 14 1024.6F   5/ 8   3/ 90/ 8
BUOY 41010       NOT AVBL
ST AUGUSTINE FL  1700   79 77   90/ 12/ 13 1023.5F


$$




USA.gov is the U.S. government's official web portal to all federal, state and local government web resources and services.